Regional Weather Roundup
Issued by NWS Upton, NY

Home | Current Version | Previous Version | Text Only | Print | Product List | Glossary On
Versions: 1 2 3 4 5 6 7 8 9 10 11 12 13 14 15 16 17 18 19 20 21 22 23 24 25 26 27 28 29 30 31 32 33 34 35 36 37 38 39 40 41 42 43 44 45 46 47 48 49 50
345
ASUS41 KOKX 290704
RWROKX

REGIONAL WEATHER ROUNDUP
NATIONAL WEATHER SERVICE NEW YORK NY
300 AM EDT SUN MAY 29 2016

NOTE: "FAIR" INDICATES FEW OR NO CLOUDS BELOW 12,000 FEET WITH NO
SIGNIFICANT WEATHER AND/OR OBSTRUCTIONS TO VISIBILITY.

NYZ071-072-176-178-NJZ106-104-290800-
NEW YORK CITY METRO AREA


CITY           SKY/WX    TMP DP  RH WIND       PRES   REMARKS
CENTRAL PARK   CLEAR     75  55  49 VRB6      30.16S
LAGUARDIA APRT CLEAR     77  58  51 SW8       30.12S
KENNEDY INTL   PTCLDY    64  54  69 S6        30.15S
NEWARK/LIBERTY CLEAR     73  55  53 SW7       30.13S
BRNX BOT. GARD   N/A     75  57  53 W3        30.13S
TETERBORO      CLEAR     74  58  57 CALM      30.12S
$$

NYZ177-179-078>081-290800-
LONG ISLAND NEW YORK

CITY           SKY/WX    TMP DP  RH WIND       PRES   REMARKS
FARMINGDALE    CLEAR     67  51  56 SW6       30.14F
ISLIP          PTCLDY    66  57  72 SW7       30.13F
SHIRLEY        PTCLDY    68  58  70 SW7       30.14F
RIVERHEAD      NOT AVBL
WESTHAMPTON    PTCLDY    66  58  75 SW8       30.15F
EAST HAMPTON   FAIR      67  58  74 SW12G17   30.13F
MONTAUK POINT    N/A     65  57  75 SW7       30.14F
$$

NYZ052-065-067-290800-
HUDSON VALLEY

CITY           SKY/WX    TMP DP  RH WIND       PRES   REMARKS
WHITE PLAINS   CLEAR     67  63  87 CALM      30.13S
NEWBURGH       PTCLDY    70  68  94 CALM      30.13S
MONTGOMERY     CLEAR     67  65  93 SW3       30.12S
POUGHKEEPSIE   CLEAR     70  67  90 CALM      30.10S
ALBANY         CLEAR     72  65  78 CALM      30.09F
$$

NJZ001-105-106-008-010-013-015-019>022-104-290800-
NEW JERSEY

CITY           SKY/WX    TMP DP  RH WIND       PRES   REMARKS
NEWARK/LIBERTY CLEAR     73  55  53 SW7       30.13S
TETERBORO      CLEAR     74  58  57 CALM      30.12S
CALDWELL       CLEAR     72  63  73 CALM      30.13S
MORRISTOWN     CLEAR     68  63  83 CALM      30.13F
SOMERVILLE     CLEAR     66  64  93 CALM      30.12S
SUSSEX         FOG       67  66  97 CALM      30.13S VSB 1/4
ANDOVER          N/A     67  65  93 CALM      30.14F
TRENTON        CLEAR     69  56  62 CALM      30.14F
MILLVILLE      PTCLDY    62  58  86 CALM      30.15F
ATLANTIC CITY  PTCLDY    65  61  87 SW3       30.15F
WRIGHTSTOWN    CLEAR     64  51  62 S2        30.13S
TOMS RIVER     CLEAR     66  54  63 SW6       30.16S
BELMAR         CLEAR     68  49  50 SW8       30.16F
$$

PAZ047>061-062-071-290800-
EASTERN PENNSYLVANIA

CITY           SKY/WX    TMP DP  RH WIND       PRES   REMARKS
PHILADELPHIA   PTCLDY    69  60  73 S6        30.14F
ALLENTOWN      CLEAR     71  62  73 CALM      30.13F
SCRANTON       CLOUDY    72  66  81 CALM      30.13F
$$

CTZ002-004>006-009-010-012-RIZ004-006-007-MAZ004-011-015-290800-
SOUTHERN NEW ENGLAND
 IN CT

CITY           SKY/WX    TMP DP  RH WIND       PRES   REMARKS
BRADLEY INTL   PTCLDY    69  61  75 S7        30.10S
HARTFORD       PTCLDY    72  60  66 S5        30.11S
DANBURY        CLEAR     67  64  90 CALM      30.14S
WTRBRY/OXFORD    N/A     70  59  68 SW3       30.15F
BRIDGEPORT     PTCLDY    69  60  73 SW5       30.12F
MERIDEN        CLEAR     67  59  75 CALM      30.12F
NEW HAVEN      CLOUDY    67  58  72 S5        30.12F
CHESTER        FAIR      68  55  64 SW5       30.13F
GROTON         CLEAR     63  53  70 W5        30.12F
WILLIMANTIC    PTCLDY    68  62  81 CALM      30.13S

 IN RI

CITY           SKY/WX    TMP DP  RH WIND       PRES   REMARKS
PROVIDENCE     CLEAR     70  54  56 SW7       30.12S
BLOCK ISLAND   CLEAR     62  57  83 SW15      30.14F
WESTERLY       CLEAR     64  52  64 CALM      30.14S

 IN MA

CITY           SKY/WX    TMP DP  RH WIND       PRES   REMARKS
BOSTON         PTCLDY    67  61  81 NE6       30.11R
WORCESTER      CLEAR     69  64  84 W9        30.14S
WESTFIELD      CLEAR     68  63  84 CALM      30.11S
PROVINCETOWN   CLEAR     61  56  83 S7        30.12R
NANTUCKET      CLEAR     59  56  89 SW10      30.14F
$$

ANZ330-335-338-340-345-350-353-355-290800-
COASTAL MARINE OBSERVATIONS


STATION/POSITION TIME  SKY/WX   TEMP    WIND        PRES    VSBY  WAVE
                                AIR SEA DIR/SP/G                  HT/PER
                 (UTC)          (F)     (DEG/KT/KT) (MB)    (MI)  (FT/S)
NY HARB ENTRANCE 0550            61 58  210/ 12/ 12 1020.2          3/ 8
20S FIRE ISLAND  0550            62 59  230/ 10/ 12 1020.6          3/ 7
GREAT SOUTH BAY  0615            67 70  240/ 12/ 16   N/A
23 SSW MONTAUK P 0650            59 57  250/  8/ 10 1020.5          3/ 5
15 E BARNEGAT LI NOT AVBL
HUDSON CANYON    0550            61 58              1021.5          2/ 8
KINGS POINT      0600            71 59              1020.1
EXECUTION ROCKS  NOT AVBL
CENTRAL LI SOUND NOT AVBL
EASTERN LI SOUND 0600            59 54  180/  4/  6   N/A
ROBBINS REEF     0600            74     170/  5/  7 1019.9
$$


>>>>>>>>>>>>>>>>>>>>>>>>>>>> KEY <<<<<<<<<<<<<<<<<<<<<<<<<<<
>                                                          <
>     SKY/WX - SKY CONDITION/PRESENT WEATHER               <
>     TMP    - TEMPERATURE IN FAHRENHEIT                   <
>     DP     - DEWPOINT IN FAHRENHEIT                      <
>     RH     - RELATIVE HUMIDITY IN PERCENT                <
>     WIND   - DIRECTION AND SPEED IN MPH                  <
>     PRES   - MEAN SEA LEVEL PRESSURE IN INCHES OF HG     <
>     WCI    - WIND CHILL INDEX                            <
>     VSB    - VISIBILITY IN MILES                         <
>     HX     - HEAT INDEX                                  <
>     TC     - TEMPERATURE IN CELSIUS                      <
>     VRB    - VARIABLE WIND DIRECTION                     <
>                                                          <
>>>>>>>>>>>>>>>>>>>>>>>>>>>> KEY <<<<<<<<<<<<<<<<<<<<<<<<<<<






USA.gov is the U.S. government's official web portal to all federal, state and local government web resources and services.